Regional Weather Roundup
Issued by NWS

Home | Current Version | Previous Version | Text Only | Print | Product List | Glossary On
Versions: 1 2 3 4 5 6 7 8 9 10 11 12 13 14 15 16 17 18 19 20 21 22 23 24 25 26 27
000
ASUS46 KPQR 302110
RWROR

OREGON REGIONAL WEATHER ROUNDUP
NATIONAL WEATHER SERVICE PORTLAND OR
200 PM PDT FRI SEP 30 2016

NOTE: "FAIR" INDICATES FEW OR NO CLOUDS BELOW 12,000 FEET WITH
NO SIGNIFICANT WEATHER AND/OR OBSTRUCTIONS TO VISIBILITY.

ORZ001>013-302200-
NORTHWEST OREGON


CITY           SKY/WX    TMP DP  RH WIND       PRES   REMARKS
ASTORIA        SUNNY     58  49  72 SW15G22   30.01F
NEWPORT        PTSUNNY   57  50  77 S18G28    30.08F
PORTLAND       MOSUNNY   65  42  43 VRB3      30.00F
VANCOUVER WA   SUNNY     64  47  53 VRB3      29.99F
SCAPPOOSE      SUNNY     63  47  55 VRB6      29.98F
HILLSBORO      SUNNY     67  46  47 S10       29.98F
AURORA         SUNNY     65  47  52 VRB5      30.00F
MCMINNVILLE    PTSUNNY   65  46  50 CALM      30.00F
SALEM          PTSUNNY   65  47  52 S8        29.99F
CORVALLIS        N/A     63  45  51 SW9       30.04F
EUGENE         CLOUDY    61  45  55 SW14G21   30.06S
$$

ORZ021-028-302200-
SOUTHWEST OREGON


CITY           SKY/WX    TMP DP  RH WIND       PRES   REMARKS
NORTH BEND     PTSUNNY   61  45  55 SW14      30.09F
BROOKINGS      CLOUDY    55  48  77 VRB7      30.13F
ROSEBURG       SUNNY     67  40  37 VRB3      30.02F
SEXTON SUMMIT  SUNNY     55  29  36 VRB5      30.06F
MEDFORD        SUNNY     71  27  19 NW12      30.00F
$$

ORZ014>016-041-302200-
COLUMBIA GORGE


CITY           SKY/WX    TMP DP  RH WIND       PRES   REMARKS
TROUTDALE      SUNNY     65  46  50 CALM      29.99F
THE DALLES     SUNNY     75  37  25 NW15      29.89F
$$

ORZ029>031-041-044-049-050-061>064-502-503-505>511-302200-
EASTERN OREGON


CITY           SKY/WX    TMP DP  RH WIND       PRES   REMARKS
REDMOND        MOSUNNY   75  29  18 SW17G25   29.90F
BEND           MOSUNNY   72  32  23 SW15G22   29.91F
PRINEVILLE     MOSUNNY   72  36  26 SW13      29.91F
KLAMATH FALLS  PTSUNNY   68  33  27 S21G26    29.98F
LAKEVIEW       CLOUDY    72  32  23 S21G32    30.02F
HERMISTON      PTSUNNY   73  36  25 NW7       29.87F
PENDLETON      PTSUNNY   72  32  23 NW8       29.88F
JOHN DAY       CLOUDY    78  32  18 S14G20    29.94F
MEACHAM        CLOUDY    69  38  32 VRB5      29.94F
LA GRANDE      PTSUNNY   81  36  19 S17       29.88F
BAKER CITY     PTSUNNY   78  30  17 S22G28    29.94F
BURNS          PTSUNNY   75  25  15 SE17      29.98F
ROME             N/A     83  24  11 S24G32    29.98F
ONTARIO        SUNNY     87  35  15 SE10G20   29.92F
$$




USA.gov is the U.S. government's official web portal to all federal, state and local government web resources and services.